Regional Weather Roundup
Issued by NWS Burlington, VT

Current Version | Previous Version | Graphics & Text | Print | Product List | Glossary Off
Versions: 1 2 3 4 5 6 7 8 9 10 11 12 13 14 15 16 17 18 19 20 21 22 23 24 25 26 27 28 29 30 31 32 33 34 35 36 37 38 39 40 41 42 43 44 45 46 47 48 49 50

918
ASUS41 KBTV 090330
RWRBTV
VERMONT REGIONAL WEATHER ROUNDUP
NATIONAL WEATHER SERVICE BURLINGTON VT
1000 PM EST MON FEB 08 2016

NOTE: "FAIR" INDICATES FEW OR NO CLOUDS BELOW 12,000 FEET WITH NO
SIGNIFICANT WEATHER AND/OR OBSTRUCTIONS TO VISIBILITY.

* THESE REPORTS ARE NOT UNDER NWS QUALITY CONTROL AND/OR DO NOT
  REPORT WEATHER SUCH AS PRECIPITATION AND FOG.

VTZ001>019-090400-
_____VERMONT_____


CITY           SKY/WX    TMP DP  RH WIND       PRES   REMARKS
BURLINGTON     LGT SNOW  23  17  78 NE6       29.80F WCI  16
MONTPELIER     LGT SNOW  18  15  88 N5        29.80F FOG     WCI  11
MORRISVILLE    LGT SNOW  20  14  77 NE6       29.82F WCI  12
ST. JOHNSBURY*   N/A     20  15  81 MISG      29.79S
LYNDONVILLE*   LGT SNOW  18  14  86 N8        29.79S WCI   7
RUTLAND*       CLOUDY    21  18  86 W5        29.75S WCI  15
SPRINGFIELD    LGT SNOW  21  17  84 NE3       29.79S FOG
HIGHGATE*      CLOUDY    21  14  74 E8G17     29.82F HAZE    WCI  11
NEWPORT*       LGT SNOW  17  12  80 N9        29.81S WCI   6
BENNINGTON     LGT SNOW  22  19  89 S5        29.75S FOG     WCI  16
SUTTON*          N/A     16 N/A N/A MISG        N/A
GALLUP MILLS*    N/A     16 N/A N/A MISG        N/A
UNION VILLAGE*   N/A     21 N/A N/A MISG        N/A
MT. MANSFIELD*   N/A      9 N/A N/A SW16        N/A  WCI  -9

_____LAKE CHAMPLAIN_____


CITY           SKY/WX    TMP DP  RH WIND       PRES   REMARKS
COLCHESTER RF*   N/A     25  21  86 E12         N/A  WCI  14
DIAMOND ISL*     N/A     25  23  93 NW15        N/A  WCI  12

$$

NYZ007-026>031-035-052-083-090400-
_____NORTHERN NEW YORK_____


CITY           SKY/WX    TMP DP  RH WIND       PRES   REMARKS
PLATTSBURGH    LGT SNOW  21  14  74 NW8       29.82F WCI  11
SARANAC LAKE   LGT SNOW  16  12  84 NE7       29.69S FOG     WCI   6
MASSENA        LGT SNOW  19  12  74 E16       29.82F WCI   4
OGDENSBURG*    CLEAR     21  10  63 E13G21    29.76F WCI   9
STARK FALLS*     N/A     23 N/A N/A E7          N/A  WCI  15
WATERTOWN      CLOUDY    24  12  60 NE12      29.71S WCI  13
ALBANY         LGT SNOW  25  21  85 CALM      29.80F FOG
GLENS FALLS    LGT SNOW  24  21  88 E3        29.79S FOG

$$
NHZ002-005-011-090400-
_____NEW HAMPSHIRE_____


CITY           SKY/WX    TMP DP  RH WIND       PRES   REMARKS
LEBANON        LGT SNOW  22  16  78 N8        29.79F WCI  12
MT WASHINGTON  SNOW       0   0 100 E21         N/A  VSB 0   WCI -23
PLYMOUTH       LGT SNOW  21  19  93 CALM      29.79F
WHITEFIELD     LGT SNOW  18  12  77 NE7       29.77F WCI   9

$$

_____REGIONAL QUEBEC LOCATIONS_____


CITY           SKY/WX    TMP DP  RH WIND       PRES   REMARKS
MONTREAL       FLURRIES  19   7  58 NE17      29.87F WCI   4
QUEBEC CITY    CLOUDY    18   9  68 NE13G20   29.94F WCI   4
SHERBROOKE     LGT SNOW  16   7  67 NE9G17    29.84F WCI   4

_____REGIONAL ONTARIO LOCATIONS_____


CITY           SKY/WX    TMP DP  RH WIND       PRES   REMARKS
OTTAWA         FLURRIES  19   9  63 E20G26    29.79F WCI   4

______KEY______
VSB  - VISIBILITY IN MILES
WCI  - WIND CHILL INDEX
HX   - HEAT INDEX
$$
NNNN




USA.gov is the U.S. government's official web portal to all federal, state and local government web resources and services.